Tiempo cada hora San Sebastián

Hoy, 20 Octubre, Martes

Tiempo Temperatura Precipitaciones Viento Presión Humedad
00:00 +13°C° 0 mm 6 mps 733 mmHg 79%
01:00 +13°C° 0 mm 6 mps 733 mmHg 78%
02:00 +12°C° 0 mm 7 mps 733 mmHg 76%
03:00 +14°C° 0 mm 7 mps 732 mmHg 75%
04:00 +14°C° 0 mm 7 mps 732 mmHg 75%
05:00 +14°C° 0 mm 7 mps 732 mmHg 75%
06:00 +14°C° 0 mm 6 mps 732 mmHg 76%
07:00 +15°C° 0 mm 6 mps 732 mmHg 74%
08:00 +16°C° 0 mm 6 mps 732 mmHg 72%
09:00 +17°C° 0 mm 7 mps 733 mmHg 69%
10:00 +17°C° 0 mm 7 mps 732 mmHg 66%
11:00 +18°C° 0 mm 7 mps 732 mmHg 63%
12:00 +20°C° 0 mm 7 mps 732 mmHg 60%
13:00 +20°C° 0 mm 7 mps 732 mmHg 59%
14:00 +21°C° 0 mm 7 mps 731 mmHg 57%
15:00 +21°C° 0 mm 7 mps 731 mmHg 55%
16:00 +20°C° 0 mm 7 mps 731 mmHg 57%
17:00 +18°C° 0 mm 8 mps 730 mmHg 58%
18:00 +16°C° 0 mm 8 mps 730 mmHg 60%
19:00 +16°C° 0 mm 8 mps 730 mmHg 59%
20:00 +16°C° 0 mm 8 mps 729 mmHg 58%
21:00 +16°C° 0 mm 8 mps 729 mmHg 57%
22:00 +16°C° 0 mm 8 mps 729 mmHg 60%
23:00 +16°C° 0 mm 8 mps 729 mmHg 63%

Mañana, 21 Octubre, Miércoles

Tiempo Temperatura Precipitaciones Viento Presión Humedad
00:00 +16°C° 0 mm 8 mps 729 mmHg 66%
01:00 +15°C° 0 mm 7 mps 729 mmHg 66%
02:00 +15°C° 0 mm 7 mps 728 mmHg 66%
03:00 +15°C° 0 mm 7 mps 728 mmHg 66%
04:00 +15°C° 0 mm 6 mps 728 mmHg 69%
05:00 +15°C° 0 mm 6 mps 729 mmHg 71%
06:00 +15°C° 0 mm 5 mps 729 mmHg 74%
07:00 +16°C° 0 mm 5 mps 729 mmHg 72%
08:00 +19°C° 0 mm 6 mps 730 mmHg 69%
09:00 +20°C° 0 mm 6 mps 730 mmHg 67%
10:00 +21°C° 0 mm 6 mps 731 mmHg 63%
11:00 +23°C° 0 mm 6 mps 731 mmHg 60%
12:00 +24°C° 0 mm 6 mps 731 mmHg 57%
13:00 +24°C° 0 mm 6 mps 731 mmHg 57%
14:00 +24°C° 0 mm 6 mps 731 mmHg 58%
15:00 +23°C° 0 mm 7 mps 731 mmHg 58%
16:00 +22°C° 0 mm 7 mps 731 mmHg 63%
17:00 +20°C° 0 mm 6 mps 731 mmHg 67%
18:00 +19°C° 0 mm 6 mps 731 mmHg 72%
19:00 +17°C° 0 mm 6 mps 731 mmHg 73%
20:00 +17°C° 0 mm 6 mps 732 mmHg 75%
21:00 +16°C° 0 mm 6 mps 732 mmHg 76%
22:00 +16°C° 0 mm 6 mps 732 mmHg 76%
23:00 +16°C° 0 mm 5 mps 732 mmHg 77%

Pasado mañana, 22 Octubre, Jueves

Tiempo Temperatura Precipitaciones Viento Presión Humedad
00:00 +16°C° 0 mm 5 mps 732 mmHg 77%
01:00 +16°C° 0 mm 5 mps 732 mmHg 79%
02:00 +16°C° 0 mm 5 mps 732 mmHg 80%
03:00 +16°C° 0 mm 5 mps 732 mmHg 82%
04:00 +16°C° 0 mm 5 mps 732 mmHg 81%
05:00 +15°C° 0 mm 5 mps 732 mmHg 80%
06:00 +15°C° 0 mm 5 mps 733 mmHg 79%
07:00 +16°C° 0 mm 5 mps 733 mmHg 76%
08:00 +17°C° 0 mm 5 mps 734 mmHg 72%
09:00 +19°C° 0 mm 5 mps 734 mmHg 69%
10:00 +20°C° 0 mm 4 mps 734 mmHg 66%
11:00 +21°C° 0 mm 4 mps 734 mmHg 63%
12:00 +22°C° 0 mm 4 mps 734 mmHg 60%
13:00 +21°C° 0.3 mm 4 mps 734 mmHg 64%
14:00 +21°C° 0.3 mm 4 mps 733 mmHg 68%
15:00 +20°C° 0.3 mm 4 mps 733 mmHg 72%
16:00 +19°C° 0.3 mm 4 mps 733 mmHg 76%
17:00 +18°C° 0.3 mm 4 mps 733 mmHg 80%
18:00 +17°C° 0.3 mm 4 mps 733 mmHg 84%
19:00 +17°C° 0.1 mm 4 mps 733 mmHg 84%
20:00 +17°C° 0.1 mm 3 mps 733 mmHg 85%
21:00 +16°C° 0.1 mm 3 mps 734 mmHg 86%
22:00 +16°C° 0.1 mm 2 mps 734 mmHg 84%
23:00 +16°C° 0.1 mm 2 mps 733 mmHg 82%

23 Octubre, Viernes

Tiempo Temperatura Precipitaciones Viento Presión Humedad
00:00 +16°C° 0.1 mm 2 mps 733 mmHg 80%
01:00 +16°C° 0.1 mm 2 mps 733 mmHg 81%
02:00 +16°C° 0.1 mm 2 mps 733 mmHg 83%
03:00 +16°C° 0.1 mm 2 mps 733 mmHg 84%
04:00 +16°C° 0.4 mm 2 mps 733 mmHg 86%
05:00 +15°C° 0.4 mm 2 mps 733 mmHg 87%
06:00 +15°C° 0.4 mm 2 mps 733 mmHg 89%
07:00 +16°C° 0.1 mm 2 mps 734 mmHg 86%
08:00 +18°C° 0.1 mm 1 mps 734 mmHg 83%
09:00 +18°C° 0.1 mm 1 mps 735 mmHg 79%
10:00 +19°C° 0.3 mm 1 mps 735 mmHg 75%
11:00 +19°C° 0.3 mm 2 mps 735 mmHg 70%
12:00 +20°C° 0.3 mm 2 mps 735 mmHg 65%
13:00 +20°C° 0.5 mm 3 mps 735 mmHg 67%
14:00 +19°C° 0.5 mm 3 mps 735 mmHg 70%
15:00 +18°C° 0.5 mm 4 mps 735 mmHg 73%
16:00 +17°C° 0.1 mm 3 mps 735 mmHg 76%
17:00 +16°C° 0.1 mm 3 mps 736 mmHg 79%
18:00 +16°C° 0.1 mm 3 mps 736 mmHg 82%
19:00 +14°C° 0.2 mm 3 mps 737 mmHg 81%
20:00 +15°C° 0.2 mm 2 mps 737 mmHg 81%
21:00 +15°C° 0.2 mm 2 mps 738 mmHg 81%
22:00 +14°C° 0 mm 2 mps 738 mmHg 83%
23:00 +13°C° 0 mm 2 mps 738 mmHg 85%

24 Octubre, Sábado

Tiempo Temperatura Precipitaciones Viento Presión Humedad
00:00 +12°C° 0 mm 2 mps 738 mmHg 86%
01:00 +12°C° 0 mm 2 mps 738 mmHg 87%
02:00 +12°C° 0 mm 2 mps 738 mmHg 88%
03:00 +10°C° 0 mm 2 mps 738 mmHg 89%
04:00 +10°C° 0 mm 2 mps 738 mmHg 89%
05:00 +10°C° 0 mm 2 mps 738 mmHg 89%
06:00 +11°C° 0 mm 1 mps 738 mmHg 89%
07:00 +12°C° 0 mm 1 mps 738 mmHg 83%
08:00 +14°C° 0 mm 1 mps 738 mmHg 77%
09:00 +16°C° 0 mm 1 mps 738 mmHg 71%
10:00 +18°C° 0 mm 1 mps 738 mmHg 66%
11:00 +19°C° 0 mm 1 mps 738 mmHg 62%
12:00 +19°C° 0 mm 2 mps 737 mmHg 57%
13:00 +19°C° 0 mm 2 mps 737 mmHg 56%
14:00 +19°C° 0 mm 2 mps 737 mmHg 56%
15:00 +19°C° 0 mm 2 mps 736 mmHg 55%
16:00 +18°C° 0 mm 1 mps 736 mmHg 62%
17:00 +15°C° 0 mm 1 mps 736 mmHg 70%
18:00 +13°C° 0 mm 1 mps 736 mmHg 77%
19:00 +13°C° 0 mm 1 mps 736 mmHg 78%
20:00 +13°C° 0 mm 1 mps 736 mmHg 80%
21:00 +12°C° 0 mm 1 mps 736 mmHg 82%
22:00 +12°C° 0 mm 1 mps 736 mmHg 81%
23:00 +12°C° 0 mm 1 mps 735 mmHg 81%

25 Octubre, Domingo

Tiempo Temperatura Precipitaciones Viento Presión Humedad
00:00 +11°C° 0 mm 1 mps 735 mmHg 81%
01:00 +11°C° 0 mm 1 mps 734 mmHg 80%
02:00 +10°C° 0 mm 2 mps 734 mmHg 80%
03:00 +10°C° 0 mm 2 mps 733 mmHg 79%
04:00 +10°C° 0 mm 2 mps 733 mmHg 78%
05:00 +9°C° 0 mm 2 mps 733 mmHg 76%
06:00 +9°C° 0 mm 2 mps 733 mmHg 75%
07:00 +11°C° 0 mm 3 mps 732 mmHg 70%
08:00 +13°C° 0 mm 3 mps 732 mmHg 65%
09:00 +16°C° 0 mm 3 mps 732 mmHg 60%
10:00 +17°C° 0 mm 3 mps 732 mmHg 58%
11:00 +18°C° 0 mm 4 mps 732 mmHg 56%
12:00 +20°C° 0 mm 4 mps 732 mmHg 54%
13:00 +20°C° 0 mm 3 mps 731 mmHg 55%
14:00 +19°C° 0 mm 3 mps 731 mmHg 56%
15:00 +19°C° 0 mm 2 mps 730 mmHg 57%
16:00 +17°C° 0.1 mm 3 mps 731 mmHg 66%
17:00 +14°C° 0.1 mm 4 mps 731 mmHg 74%
18:00 +13°C° 0.1 mm 5 mps 731 mmHg 83%
19:00 +10°C° 2.4 mm 5 mps 732 mmHg 86%
20:00 +9°C° 2.4 mm 5 mps 732 mmHg 88%
21:00 +8°C° 2.4 mm 5 mps 733 mmHg 91%
22:00 +8°C° 1.6 mm 5 mps 733 mmHg 91%
23:00 +8°C° 1.6 mm 5 mps 733 mmHg 91%

26 Octubre, Lunes

Tiempo Temperatura Precipitaciones Viento Presión Humedad
00:00 +7°C° 1.6 mm 4 mps 733 mmHg 91%
01:00 +7°C° 0.6 mm 5 mps 733 mmHg 90%
02:00 +7°C° 0.6 mm 5 mps 733 mmHg 90%
03:00 +7°C° 0.6 mm 5 mps 733 mmHg 89%
04:00 +7°C° 0.1 mm 5 mps 734 mmHg 89%
05:00 +7°C° 0.1 mm 5 mps 734 mmHg 88%
06:00 +7°C° 0.1 mm 5 mps 735 mmHg 88%
07:00 +8°C° 0.3 mm 6 mps 735 mmHg 85%
08:00 +8°C° 0.3 mm 6 mps 735 mmHg 82%
09:00 +9°C° 0.3 mm 6 mps 736 mmHg 79%
10:00 +10°C° 0.5 mm 6 mps 736 mmHg 77%
11:00 +10°C° 0.5 mm 7 mps 736 mmHg 75%
12:00 +10°C° 0.5 mm 7 mps 736 mmHg 74%
13:00 +11°C° 0.2 mm 7 mps 736 mmHg 73%
14:00 +11°C° 0.2 mm 6 mps 736 mmHg 72%
15:00 +11°C° 0.2 mm 6 mps 736 mmHg 72%
16:00 +10°C° 0 mm 6 mps 737 mmHg 75%
17:00 +9°C° 0 mm 6 mps 737 mmHg 79%
18:00 +8°C° 0 mm 5 mps 737 mmHg 83%
19:00 +8°C° 0 mm 5 mps 738 mmHg 83%
20:00 +8°C° 0 mm 5 mps 738 mmHg 83%
21:00 +8°C° 0 mm 5 mps 738 mmHg 83%
22:00 +8°C° 0 mm 5 mps 738 mmHg 83%
23:00 +8°C° 0 mm 4 mps 738 mmHg 82%
Mostrar más

Necesitamos Su Consentimiento

Meteoprog y nuestros Proveedores de Servicios pueden almacenar y acceder a sus datos personales como cookies, identificadores de dispositivo u otras tecnologías similares de su dispositivo y procesar dichos datos para personalizar contenido y anuncios, además de ofrecer funciones de redes sociales y analizar el tráfico.

  • Almacenar y/o acceder a información en su dispositivo

    Se puede almacenar o acceder a cookies, identificadores de dispositivo u otra información de su dispositivo para los fines anteriormente indicados.

  • Anuncios y contenido personalizados, medición de anuncios y contenido, percepciones del público, y desarrollo de productos

    Los anuncios y el contenido pueden personalizarse en base a su perfil. Se pueden añadir más datos para personalizar mejor los anuncios y contenidos. Se puede medir el rendimiento de los anuncios y contenidos. Se puede obtener la percepción sobre el público que ha visto los anuncios y contenidos. Dichos datos pueden usarse para desarrollar o mejorar la experiencia del usuario, sistemas y software.

Al hacer clic en ‘Estoy De Acuerdo’ usted permitirá el uso de las cookies, identificadores de dispositivo, balizas web u otras tecnologías similares indicadas. Su configuración puede cambiarse desde el navegador de su dispositivo.

Para ciertos fines, los intereses legítimos pueden ser considerados por encima del consentimiento. Puede leer más sobre ello en nuestra Política de Privacidad y Cookies.